Nellis AFB, NV

7:54 PM PST on December 10, 2019 (GMT -0800)
Nellis Air Force Base

Weather History for KLSV - September, 2019

Change the Weather History Date:

Tuesday, September 24, 2019

  Actual Average Record
Temperature  
Mean Temperature 78 °F -  
Max Temperature 94 °F 91 °F 102 °F (2015)
Min Temperature 61 °F 64 °F 53 °F (2017)
Cooling Degree Days 12    
Growing Degree Days 28 (Base 50)    
Moisture  
Dew Point 36 °F    
Average Humidity 26    
Maximum Humidity 55    
Minimum Humidity 10    
Precipitation  
Precipitation 0.00 in - - ()
Sea Level Pressure  
Sea Level Pressure 29.90 in    
Wind  
Wind Speed 6 mph (NNE)    
Max Wind Speed 20 mph    
Max Gust Speed 24 mph    
Visibility 10 miles    
Events      
Averages and records for this station are not official NWS values.
T = Trace of Precipitation, MM = Missing Value Source: NWS Daily Summary

Daily Weather History Graph

Daily Weather History Graph

Search for Another Location

Airport or City:

Astronomy

Sep. 24, 2019 Rise Set
Actual Time 6:29 AM PDT 6:34 PM PDT
Civil Twilight 6:03 AM PDT 6:59 PM PDT
Nautical Twilight 5:33 AM PDT 7:29 PM PDT
Astronomical Twilight 5:03 AM PDT 7:59 PM PDT
Moon 1:29 AM PDT (9/24) 4:13 PM PDT (9/24)
Length of Visible Light 12h 55m
Length of Day
12h 04m
Waning Crescent, 22% of the Moon is Illuminated
Sep 24
Waning Crescent
Sep 28
New
Oct 5
First Quarter
Oct 13
Full
Oct 21
Last Quarter

Hourly Weather History & Observations

Time (PDT) Temp. Dew Point Humidity Pressure Visibility Wind Dir Wind Speed Gust Speed Precip Events Conditions
12:58 AM 67.5 °F 47.7 °F 49% 29.94 in 10.0 mi North 4.6 mph - N/A   Clear
1:58 AM 67.6 °F 45.5 °F 45% 29.95 in 10.0 mi NNE 8.1 mph - N/A   Clear
2:58 AM 67.8 °F 46.8 °F 47% 29.95 in 10.0 mi WNW 6.9 mph - N/A   Clear
3:58 AM 65.3 °F 47.3 °F 52% 29.96 in 10.0 mi Calm Calm - N/A   Clear
4:58 AM 63.0 °F 45.1 °F 52% 29.97 in 10.0 mi Calm Calm - N/A   Clear
5:58 AM 61.3 °F 45.0 °F 55% 29.99 in 10.0 mi Calm Calm - N/A   Clear
6:58 AM 61.5 °F 44.8 °F 54% 30.03 in 10.0 mi North 3.5 mph - N/A   Clear
7:58 AM 67.6 °F 43.7 °F 42% 30.05 in 10.0 mi NE 3.5 mph - N/A   Clear
8:58 AM 75.4 °F 40.8 °F 29% 30.06 in 10.0 mi NE 5.8 mph - N/A   Clear
9:58 AM 80.6 °F 37.0 °F 21% 30.00 in 10.0 mi NE 10.4 mph - N/A   Clear
10:58 AM 84.9 °F 35.2 °F 17% 29.97 in 10.0 mi Calm Calm - N/A   Clear
11:58 AM 88.0 °F 34.5 °F 15% 29.93 in 10.0 mi NNE 11.5 mph 19.6 mph N/A   Clear
12:58 PM 91.0 °F 31.3 °F 12% 29.90 in 10.0 mi NNE 19.6 mph 24.2 mph N/A   Clear
1:50 PM 93.2 °F 32.0 °F 11% 29.86 in 10.0 mi NNW 13.8 mph 21.9 mph N/A   Clear
1:58 PM 92.8 °F 30.6 °F 11% 29.86 in 10.0 mi North 16.1 mph 23.0 mph N/A   Clear
2:37 PM 93.2 °F 30.2 °F 11% 29.84 in 10.0 mi NNE 13.8 mph - N/A   Clear
3:58 PM 94.1 °F 29.1 °F 10% 29.81 in 10.0 mi NNE 16.1 mph 19.6 mph N/A   Clear
4:58 PM 94.1 °F 29.1 °F 10% 29.79 in 10.0 mi NE 15.0 mph - N/A   Clear
5:58 PM 92.5 °F 30.4 °F 11% 29.78 in 10.0 mi NNE 9.2 mph - N/A   Clear
6:58 PM 89.6 °F 30.2 °F 12% 29.79 in 10.0 mi Calm Calm - N/A   Clear
7:58 PM 86.7 °F 31.8 °F 14% 29.79 in 10.0 mi Calm Calm - N/A   Clear
8:58 PM 80.2 °F 30.0 °F 16% 29.80 in 6.0 mi North 4.6 mph - N/A   Haze
9:58 PM 79.2 °F 30.6 °F 17% 29.79 in 10.0 mi NW 3.5 mph - N/A   Clear
10:58 PM 74.7 °F 29.7 °F 19% 29.80 in 10.0 mi North 5.8 mph - N/A   Clear
11:58 PM 74.3 °F 30.6 °F 20% 29.80 in 10.0 mi SE 3.5 mph - N/A   Clear